User: anonymous   Login
Location: *
(45.8589°N, 4.7139°E)
Time: 10:18:40
(UTC+00:00)
Language:

Cosmos 1605 Rocket - Orbit

View from above orbital plane
View from above orbital plane
View from above satellite
View from above satellite

Ground track
Ground track

The orbit data is extracted from the following two-line orbital elements,

1 15360U 84109B   21209.98458284  .00000089  00000-0  74794-4 0  9991
2 15360  82.9404  12.0087 0041617 168.2988 191.9147 13.76782400848362
Epoch (UTC): 28 July 2021 23:37:47
Eccentricity: 0.0041617
inclination: 82.9404°
perigee height: 945 km
apogee height: 1006 km
right ascension of ascending node: 12.0087°
argument of perigee: 168.2988°
revolutions per day: 13.76782400
mean anomaly at epoch: 191.9147°
orbit number at epoch: 84836

The dashed part of the orbit path shows where the satellite is in the earth's shadow,  

DLR